Location: Unspecified
(0.0000°N, 0.0000°E)
Time: 01:10:19
(UTC+01:00)

Daily predictions for brighter satellites

Satellite Brightness Start Highest point End
(mag) Time Altitude Azimuth Time Altitude Azimuth Time Altitude Azimuth
Milstar 3 Cent rocket 3.9 04:46:41 57° W 04:49:14 66° NW 04:57:38 10° NE
Cosmos 2322 4.5 04:53:15 45° SSE 04:53:15 45° SSE 04:57:08 10° SSE
Meteor 1-24 Rocket 4.3 04:53:53 52° ENE 04:54:09 52° E 04:59:26 10° SSE
Cosmos 968 Rocket 4.2 04:50:04 10° S 04:55:06 50° ESE 04:55:36 48° E
ARIANE 5 R/B 3.2 05:00:07 44° E 05:00:07 44° E 05:07:00 10° E
Ariane H10+ 3.9 04:58:54 49° SW 05:00:14 57° S 05:03:54 10° ESE
BLOCK-DM UPPERSTAGE 3.7 05:03:21 69° E 05:03:21 69° E 05:10:04 10° E
CENTAUR R/B 3.0 05:04:19 63° W 05:05:10 67° WSW 05:13:10 10° SSE
Meteor 2-17 Rocket 4.3 05:01:56 10° S 05:08:01 90° ESE 05:08:54 67° N
Cosmos 2360 Rocket 3.2 05:15:30 31° SSW 05:15:30 31° SSW 05:18:53 10° S
ARIANE 5 R/B 2.1 05:14:54 56° ENE 05:14:54 56° ENE 05:16:55 10° E
Meteor 1-31 Rocket 4.4 05:24:09 26° SSW 05:24:09 26° SSW 05:25:55 10° SSW
Centaur AC-64 3.6 05:02:05 10° WSW 05:22:03 75° NNW 05:25:51 10° ENE
Okean 3 Rocket 3.5 05:22:37 84° ESE 05:22:37 84° ESE 05:27:05 10° S
Cosmos 1763 Rocket 4.1 05:21:49 28° NNE 05:24:15 52° ENE 05:29:13 10° SSE
Ariane H10-3 4.3 05:26:59 13° ENE 05:26:59 13° ENE 05:27:16 10° ENE
Delta 168 4.0 05:23:55 49° NW 05:26:02 78° NNE 05:31:29 10° ESE
Cosmos 1733 3.9 05:23:19 10° S 05:26:13 49° S 05:26:13 49° S
Cosmos 2333 Rocket 3.8 05:23:00 10° NNE 05:28:00 32° ENE 05:33:02 10° SE
NOAA 6 4.2 05:26:25 10° NNE 05:31:35 74° ESE 05:36:45 10° S
Orbus 7S 4.5 05:33:50 43° WSW 05:35:07 56° SSW 05:47:15 10° SE
Palapa 6 Rocket 4.3 05:34:40 36° WSW 05:36:34 47° SSW 05:41:48 10° SE
Centaur D-1AR AC-39 1.8 05:38:01 50° NNW 05:38:45 63° NNE 05:45:02 10° ESE
DNEPR-1 R/B 3.6 05:38:42 48° NNW 05:39:58 88° WSW 05:45:02 10° SSE
Cosmos 2219 Rocket 2.6 05:36:08 15° N 05:40:37 60° ENE 05:46:08 10° SSE
GPS 2-17 Rocket1 4.5 05:41:16 25° SW 05:42:36 28° SSW 05:46:45 10° SE
Cosmos 2227 4.0 05:37:17 10° SSW 05:42:55 76° WNW 05:48:31 10° N
Cosmos 1470 4.1 05:39:55 10° SSW 05:41:52 26° SW 05:41:52 26° SW
Cosmos 332 Rocket 4.3 05:40:04 14° N 05:44:07 58° ENE 05:48:55 10° SSE
Cosmos 1725 Rocket 4.3 05:41:19 10° SSW 05:47:06 42° W 05:51:00 20° NNW
Cosmos 1076 Rocket 3.4 05:45:12 25° N 05:47:42 84° W 05:52:06 10° S
BREEZE M DEB (TANK) 2.5 05:49:12 35° NNE 05:49:35 38° NE 05:51:40 10° ESE
Ariane 5 R/B 4.2 05:45:56 20° WSW 05:49:58 53° S 05:54:06 10° E
ARIANE 44L R/B 2.6 05:50:51 52° NW 05:51:32 69° N 05:58:15 10° E
Ariane H10 1.9 05:52:21 71° WNW 05:52:34 82° N 05:54:40 10° E
CZ-2C R/B 4.3 05:56:05 10° SSW 06:00:08 35° WSW 06:01:30 28° WNW
CSL-04 Rocket 4.5 05:56:55 10° NNE 06:02:02 52° ESE 06:07:11 10° S
Tiangong 1 3.6 06:00:51 10° N 06:02:35 15° NE 06:04:21 10° E
Gbstr 26 Del rocket 3.8 06:02:40 28° WNW 06:03:32 30° NW 06:07:54 10° N
Cosmos 44 2.8 06:02:16 21° NNW 06:04:59 73° WSW 06:09:16 10° SSE
Centaur AC-116 3.6 06:06:29 17° SW 06:06:49 18° SSW 06:08:26 10° SSE
GPS 2-12 Rocket1 3.6 06:06:43 26° WNW 06:08:31 37° NNW 06:12:37 10° NE
COSMOS 2428 3.6 06:06:26 22° WNW 06:08:40 29° WSW 06:13:31 10° SSW
CZ-4 R/B 4.3 06:06:02 10° NE 06:09:10 21° ESE 06:12:20 10° SSE
Cosmos 2237 Rocket 2.6 06:06:02 10° N 06:11:41 68° ENE 06:17:19 10° SSE
Cosmos 371 Rocket 3.2 06:09:27 10° NNW 06:14:16 84° W 06:19:09 10° S
SL-16 R/B 4.4 06:11:58 10° NNE 06:16:26 24° ENE 06:20:54 10° SE
Cosmos 841 Rocket 3.9 06:14:06 13° NW 06:18:21 41° WSW 06:23:11 10° S
Meteor 1-16 Rocket 4.3 06:13:47 10° SSW 06:19:16 51° W 06:24:33 10° N
CZ-3 R/B 2.7 06:06:32 14° NW 06:20:33 49° NNE 06:25:18 10° E
Cosmos 1766 Rocket 4.0 06:17:15 10° NNW 06:21:15 38° W 06:25:16 10° SSW
Thor Agena Rocket 3.5 06:17:16 10° S 06:22:24 69° WSW 06:27:36 10° NNW
Cosmos 2221 2.6 06:19:00 10° S 06:23:24 87° E 06:27:44 10° N
ASTRO E2 4.0 06:22:18 17° WNW 06:24:01 22° NNW 06:27:09 10° NNE
ARIANE 5 R/B 2.1 06:18:54 13° W 06:25:25 61° N 06:27:54 10° E
Meteor 1-4 Rocket 4.2 06:25:59 10° WSW 06:28:09 15° W 06:29:33 13° WNW
Ariane 3 Deb 3.6 06:20:42 12° W 06:29:18 43° NNW 06:32:27 10° ENE
Ariane Rocket 3.1 06:26:01 10° N 06:30:57 53° WNW 06:35:56 10° SSW
Cosmos 2344 3.7 06:22:55 10° SSW 06:31:38 60° WNW 06:39:10 10° N
NOSS 0 Rocket 4.1 06:28:02 10° NNW 06:33:58 53° WSW 06:39:57 10° S
Cosmos 1461 3.4 06:32:27 10° NNW 06:36:30 63° ENE 06:40:45 10° SSE
CZ-2C R/B 3.1 06:35:50 10° NNE 06:40:18 55° ESE 06:44:53 10° S
Cosmos 1271 Rocket 3.9 06:39:28 10° SW 06:42:36 23° W 06:45:41 10° NNW
NOSS 3-3 (A) 4.4 06:37:49 10° SSW 06:43:51 68° ESE 06:49:53 10° NNE
NOSS 3-3 (C) 4.4 06:37:56 10° SSW 06:43:58 67° ESE 06:50:00 10° NNE
SL-24 R/B - RUBIN 2 4.3 06:43:05 10° SSW 06:48:40 75° WNW 06:54:57 10° NNE
CZ-3B DEB 3.4 06:48:46 10° SSW 06:57:01 46° SE 07:00:35 10° ENE
Ariane H10+ 3.6 06:51:12 10° W 07:13:33 83° N 07:19:05 10° E
